owner,sensor,date,latitude,longitude,vertical_datum,direction_of_sea_water_velocity,sea_water_speed,upward_sea_water_velocity,qcFlag 
TABS,ioos:station:wmo:42049:1,2019-02-01T00:00:00Z,28.3507,-96.0058,2.0,247.5553185,36.90555785,-99999.0,'11111222,11111222,99999999' 
TABS,ioos:station:wmo:42049:1,2019-02-01T00:30:00Z,28.3507,-96.0058,2.0,257.1342986,39.52215708,-99999.0,'11111222,11111222,99999999' 
TABS,ioos:station:wmo:42049:1,2019-02-01T01:00:00Z,28.3507,-96.0058,2.0,262.0750356,51.64316896,-99999.0,'11111222,11111222,99999999' 
TABS,ioos:station:wmo:42049:1,2019-02-01T01:30:00Z,28.3507,-96.0058,2.0,258.7932033,46.66983287,-99999.0,'11111222,11111222,99999999' 
TABS,ioos:station:wmo:42049:1,2019-02-01T02:00:00Z,28.3507,-96.0058,2.0,256.1088287,43.94517152,-99999.0,'11111222,11111222,99999999' 
TABS,ioos:station:wmo:42049:1,2019-02-01T02:30:00Z,28.3507,-96.0058,2.0,251.4650289,45.45781011,-99999.0,'11111222,11111222,99999999' 
TABS,ioos:station:wmo:42049:1,2019-02-01T03:00:00Z,28.3507,-96.0058,2.0,248.6838775,48.1970995,-99999.0,'11111222,11111222,99999999' 
TABS,ioos:station:wmo:42049:1,2019-02-01T03:30:00Z,28.3507,-96.0058,2.0,248.3646116,46.67843399,-99999.0,'11111222,11111222,99999999' 
TABS,ioos:station:wmo:42049:1,2019-02-01T04:00:00Z,28.3507,-96.0058,2.0,246.4886755,47.92887334,-99999.0,'11111222,11111222,99999999' 
TABS,ioos:station:wmo:42049:1,2019-02-01T04:30:00Z,28.3507,-96.0058,2.0,242.9436699,46.45378133,-99999.0,'11111222,11111222,99999999' 
TABS,ioos:station:wmo:42049:1,2019-02-01T05:00:00Z,28.3507,-96.0058,2.0,240.5981536,47.80756635,-99999.0,'11111222,11111222,99999999' 
TABS,ioos:station:wmo:42049:1,2019-02-01T05:30:00Z,28.3507,-96.0058,2.0,242.220769,48.55593167,-99999.0,'11111222,11111222,99999999' 
TABS,ioos:station:wmo:42049:1,2019-02-01T06:00:00Z,28.3507,-96.0058,2.0,238.4625481,52.78647744,-99999.0,'11111222,11111222,99999999' 
TABS,ioos:station:wmo:42049:1,2019-02-01T06:30:00Z,28.3507,-96.0058,2.0,235.3897383,54.42032892,-99999.0,'11111222,11111222,99999999' 
TABS,ioos:station:wmo:42049:1,2019-02-01T07:00:00Z,28.3507,-96.0058,2.0,237.9212925,54.9259547,-99999.0,'11111222,11111222,99999999' 
TABS,ioos:station:wmo:42049:1,2019-02-01T07:30:00Z,28.3507,-96.0058,2.0,237.4462725,48.65400806,-99999.0,'11111222,11111222,99999999' 
TABS,ioos:station:wmo:42049:1,2019-02-01T08:00:00Z,28.3507,-96.0058,2.0,237.2612577,54.27103279,-99999.0,'11111222,11111222,99999999' 
TABS,ioos:station:wmo:42049:1,2019-02-01T08:30:00Z,28.3507,-96.0058,2.0,236.9904913,52.27863808,-99999.0,'11111222,11111222,99999999' 
TABS,ioos:station:wmo:42049:1,2019-02-01T09:00:00Z,28.3507,-96.0058,2.0,239.49763,52.56430823,-99999.0,'11111222,11111222,99999999' 
TABS,ioos:station:wmo:42049:1,2019-02-01T09:30:00Z,28.3507,-96.0058,2.0,231.1898945,54.29711779,-99999.0,'11111222,11111222,99999999' 
TABS,ioos:station:wmo:42049:1,2019-02-01T10:00:00Z,28.3507,-96.0058,2.0,214.3672578,46.67851112,-99999.0,'11111222,11111222,99999999' 
TABS,ioos:station:wmo:42049:1,2019-02-01T10:30:00Z,28.3507,-96.0058,2.0,256.8387391,15.24029199,-99999.0,'11111222,11111222,99999999' 
TABS,ioos:station:wmo:42049:1,2019-02-01T11:00:00Z,28.3507,-96.0058,2.0,258.5322818,22.13178935,-99999.0,'11111222,11111222,99999999' 
TABS,ioos:station:wmo:42049:1,2019-02-01T11:30:00Z,28.3507,-96.0058,2.0,244.5947097,27.83133486,-99999.0,'11111222,11111222,99999999' 
TABS,ioos:station:wmo:42049:1,2019-02-01T12:00:00Z,28.3507,-96.0058,2.0,232.4245029,37.20881885,-99999.0,'11111222,11111222,99999999' 
TABS,ioos:station:wmo:42049:1,2019-02-01T12:30:00Z,28.3507,-96.0058,2.0,238.4356841,38.80025387,-99999.0,'11111222,11111222,99999999' 
TABS,ioos:station:wmo:42049:1,2019-02-01T13:00:00Z,28.3507,-96.0058,2.0,236.8449568,81.3309197,-99999.0,'11111222,11111222,99999999' 
TABS,ioos:station:wmo:42049:1,2019-02-01T13:30:00Z,28.3507,-96.0058,2.0,236.7173683,84.95448664,-99999.0,'11111222,11111222,99999999' 
TABS,ioos:station:wmo:42049:1,2019-02-01T14:00:00Z,28.3507,-96.0058,2.0,234.9543061,85.36728003,-99999.0,'11111222,11111222,99999999' 
TABS,ioos:station:wmo:42049:1,2019-02-01T14:30:00Z,28.3507,-96.0058,2.0,237.5164512,84.14449774,-99999.0,'11111222,11111222,99999999' 
TABS,ioos:station:wmo:42049:1,2019-02-01T15:00:00Z,28.3507,-96.0058,2.0,240.4628841,74.10007962,-99999.0,'11111222,11111222,99999999' 
TABS,ioos:station:wmo:42049:1,2019-02-01T15:30:00Z,28.3507,-96.0058,2.0,237.5589112,79.37705273,-99999.0,'11111222,11111222,99999999' 
TABS,ioos:station:wmo:42049:1,2019-02-01T16:00:00Z,28.3507,-96.0058,2.0,239.1092675,70.97817763,-99999.0,'11111222,11111222,99999999' 
TABS,ioos:station:wmo:42049:1,2019-02-01T16:30:00Z,28.3507,-96.0058,2.0,237.8500172,67.78389927,-99999.0,'11111222,11111222,99999999' 
TABS,ioos:station:wmo:42049:1,2019-02-01T17:00:00Z,28.3507,-96.0058,2.0,255.0733196,50.43166664,-99999.0,'11111222,11111222,99999999' 
TABS,ioos:station:wmo:42049:1,2019-02-01T17:30:00Z,28.3507,-96.0058,2.0,260.5760775,48.55525203,-99999.0,'11111222,11111222,99999999' 
TABS,ioos:station:wmo:42049:1,2019-02-01T18:00:00Z,28.3507,-96.0058,2.0,260.0444715,48.35810687,-99999.0,'11111222,11111222,99999999' 
TABS,ioos:station:wmo:42049:1,2019-02-01T18:30:00Z,28.3507,-96.0058,2.0,267.0494265,47.60308919,-99999.0,'11111222,11111222,99999999' 
TABS,ioos:station:wmo:42049:1,2019-02-01T19:00:00Z,28.3507,-96.0058,2.0,257.7603968,45.70891598,-99999.0,'11111222,11111222,99999999' 
TABS,ioos:station:wmo:42049:1,2019-02-01T19:30:00Z,28.3507,-96.0058,2.0,270.2995564,53.63073093,-99999.0,'11111222,11111222,99999999' 
TABS,ioos:station:wmo:42049:1,2019-02-01T20:00:00Z,28.3507,-96.0058,2.0,271.8745672,52.89829676,-99999.0,'11111222,11111222,99999999' 
TABS,ioos:station:wmo:42049:1,2019-02-01T20:30:00Z,28.3507,-96.0058,2.0,270.1510853,53.24018407,-99999.0,'11111222,11111222,99999999' 
TABS,ioos:station:wmo:42049:1,2019-02-01T21:00:00Z,28.3507,-96.0058,2.0,268.1516529,57.6799974,-99999.0,'11111222,11111222,99999999' 
TABS,ioos:station:wmo:42049:1,2019-02-01T21:30:00Z,28.3507,-96.0058,2.0,263.2224533,60.67394911,-99999.0,'11111222,11111222,99999999' 
TABS,ioos:station:wmo:42049:1,2019-02-01T22:00:00Z,28.3507,-96.0058,2.0,259.702469,59.80319139,-99999.0,'11111222,11111222,99999999' 
TABS,ioos:station:wmo:42049:1,2019-02-01T22:30:00Z,28.3507,-96.0058,2.0,260.0257097,57.448228,-99999.0,'11111222,11111222,99999999' 
TABS,ioos:station:wmo:42049:1,2019-02-01T23:00:00Z,28.3507,-96.0058,2.0,259.3845428,61.2888383,-99999.0,'11111222,11111222,99999999' 
TABS,ioos:station:wmo:42049:1,2019-02-01T23:30:00Z,28.3507,-96.0058,2.0,258.3750548,61.7873199,-99999.0,'11111222,11111222,99999999' 
TABS,ioos:station:wmo:42049:1,2019-02-02T00:00:00Z,28.3507,-96.0058,2.0,257.9273184,64.11800137,-99999.0,'11111222,11111222,99999999' 
TABS,ioos:station:wmo:42049:1,2019-02-02T00:30:00Z,28.3507,-96.0058,2.0,258.4633756,64.05399051,-99999.0,'11111222,11111222,99999999' 
TABS,ioos:station:wmo:42049:1,2019-02-02T01:00:00Z,28.3507,-96.0058,2.0,254.5229691,63.96958183,-99999.0,'11111222,11111222,99999999' 
TABS,ioos:station:wmo:42049:1,2019-02-02T01:30:00Z,28.3507,-96.0058,2.0,252.7553031,66.04894246,-99999.0,'11111222,11111222,99999999' 
TABS,ioos:station:wmo:42049:1,2019-02-02T02:00:00Z,28.3507,-96.0058,2.0,252.3415159,65.30703637,-99999.0,'11111222,11111222,99999999' 
TABS,ioos:station:wmo:42049:1,2019-02-02T02:30:00Z,28.3507,-96.0058,2.0,255.765314,72.26877196,-99999.0,'11111222,11111222,99999999' 
TABS,ioos:station:wmo:42049:1,2019-02-02T03:00:00Z,28.3507,-96.0058,2.0,257.6357589,67.81274217,-99999.0,'11111222,11111222,99999999' 
TABS,ioos:station:wmo:42049:1,2019-02-02T03:30:00Z,28.3507,-96.0058,2.0,258.6065396,67.58169131,-99999.0,'11111222,11111222,99999999' 
TABS,ioos:station:wmo:42049:1,2019-02-02T04:00:00Z,28.3507,-96.0058,2.0,256.6267305,64.94084077,-99999.0,'11111222,11111222,99999999' 
TABS,ioos:station:wmo:42049:1,2019-02-02T04:30:00Z,28.3507,-96.0058,2.0,263.1535891,77.43208185,-99999.0,'11111222,11111222,99999999' 
TABS,ioos:station:wmo:42049:1,2019-02-02T05:00:00Z,28.3507,-96.0058,2.0,268.5708686,76.2036902,-99999.0,'11111222,11111222,99999999' 
TABS,ioos:station:wmo:42049:1,2019-02-02T05:30:00Z,28.3507,-96.0058,2.0,269.5827579,78.35207336,-99999.0,'11111222,11111222,99999999' 
TABS,ioos:station:wmo:42049:1,2019-02-02T06:00:00Z,28.3507,-96.0058,2.0,268.664174,79.3815602,-99999.0,'11111222,11111222,99999999' 
TABS,ioos:station:wmo:42049:1,2019-02-02T06:30:00Z,28.3507,-96.0058,2.0,266.4106233,79.23539613,-99999.0,'11111222,11111222,99999999' 
TABS,ioos:station:wmo:42049:1,2019-02-02T07:00:00Z,28.3507,-96.0058,2.0,263.347001,72.50820919,-99999.0,'11111222,11111222,99999999' 
TABS,ioos:station:wmo:42049:1,2019-02-02T07:30:00Z,28.3507,-96.0058,2.0,263.1176135,76.02777453,-99999.0,'11111222,11111222,99999999' 
TABS,ioos:station:wmo:42049:1,2019-02-02T08:00:00Z,28.3507,-96.0058,2.0,264.5114873,72.77358862,-99999.0,'11111222,11111222,99999999' 
TABS,ioos:station:wmo:42049:1,2019-02-02T08:30:00Z,28.3507,-96.0058,2.0,263.6802952,63.59641578,-99999.0,'11111222,11111222,99999999' 
TABS,ioos:station:wmo:42049:1,2019-02-02T09:00:00Z,28.3507,-96.0058,2.0,254.203159,54.9554001,-99999.0,'11111222,11111222,99999999' 
TABS,ioos:station:wmo:42049:1,2019-02-02T09:30:00Z,28.3507,-96.0058,2.0,255.6155157,57.92585088,-99999.0,'11111222,11111222,99999999' 
TABS,ioos:station:wmo:42049:1,2019-02-02T10:00:00Z,28.3507,-96.0058,2.0,256.8926239,61.91293564,-99999.0,'11111222,11111222,99999999' 
TABS,ioos:station:wmo:42049:1,2019-02-02T10:30:00Z,28.3507,-96.0058,2.0,257.6036379,65.49690451,-99999.0,'11111222,11111222,99999999' 
TABS,ioos:station:wmo:42049:1,2019-02-02T11:00:00Z,28.3507,-96.0058,2.0,256.3577066,58.85023789,-99999.0,'11111222,11111222,99999999' 
TABS,ioos:station:wmo:42049:1,2019-02-02T11:30:00Z,28.3507,-96.0058,2.0,257.5587364,56.53756716,-99999.0,'11111222,11111222,99999999' 
TABS,ioos:station:wmo:42049:1,2019-02-02T12:00:00Z,28.3507,-96.0058,2.0,255.0490613,55.9334113,-99999.0,'11111222,11111222,99999999' 
TABS,ioos:station:wmo:42049:1,2019-02-02T12:30:00Z,28.3507,-96.0058,2.0,256.5744712,53.66648489,-99999.0,'11111222,11111222,99999999' 
TABS,ioos:station:wmo:42049:1,2019-02-02T13:00:00Z,28.3507,-96.0058,2.0,255.6138123,51.68045278,-99999.0,'11111222,11111222,99999999' 
TABS,ioos:station:wmo:42049:1,2019-02-02T13:30:00Z,28.3507,-96.0058,2.0,255.7101551,48.29416528,-99999.0,'11111222,11111222,99999999' 
TABS,ioos:station:wmo:42049:1,2019-02-02T14:00:00Z,28.3507,-96.0058,2.0,253.856577,44.59849325,-99999.0,'11111222,11111222,99999999' 
TABS,ioos:station:wmo:42049:1,2019-02-02T14:30:00Z,28.3507,-96.0058,2.0,254.9466442,42.50863559,-99999.0,'11111222,11111222,99999999' 
TABS,ioos:station:wmo:42049:1,2019-02-02T15:00:00Z,28.3507,-96.0058,2.0,260.5466124,40.36817187,-99999.0,'11111222,11111222,99999999' 
TABS,ioos:station:wmo:42049:1,2019-02-02T15:30:00Z,28.3507,-96.0058,2.0,255.8954916,36.85088873,-99999.0,'11111222,11111222,99999999' 
TABS,ioos:station:wmo:42049:1,2019-02-02T16:00:00Z,28.3507,-96.0058,2.0,256.4596609,37.80059523,-99999.0,'11111222,11111222,99999999' 
TABS,ioos:station:wmo:42049:1,2019-02-02T16:30:00Z,28.3507,-96.0058,2.0,259.472057,41.65110563,-99999.0,'11111222,11111222,99999999' 
TABS,ioos:station:wmo:42049:1,2019-02-02T17:00:00Z,28.3507,-96.0058,2.0,262.9962777,43.79676358,-99999.0,'11111222,11111222,99999999' 
TABS,ioos:station:wmo:42049:1,2019-02-02T17:30:00Z,28.3507,-96.0058,2.0,267.2289345,42.40957557,-99999.0,'11111222,11111222,99999999' 
TABS,ioos:station:wmo:42049:1,2019-02-02T18:00:00Z,28.3507,-96.0058,2.0,264.9546318,46.85150264,-99999.0,'11111222,11111222,99999999' 
TABS,ioos:station:wmo:42049:1,2019-02-02T18:30:00Z,28.3507,-96.0058,2.0,269.5584643,45.46134732,-99999.0,'11111222,11111222,99999999' 
TABS,ioos:station:wmo:42049:1,2019-02-02T19:00:00Z,28.3507,-96.0058,2.0,268.1607127,48.61503574,-99999.0,'11111222,11111222,99999999' 
TABS,ioos:station:wmo:42049:1,2019-02-02T19:30:00Z,28.3507,-96.0058,2.0,265.9273105,45.90590049,-99999.0,'11111222,11111222,99999999' 
TABS,ioos:station:wmo:42049:1,2019-02-02T20:00:00Z,28.3507,-96.0058,2.0,259.7045813,46.94580066,-99999.0,'11111222,11111222,99999999' 
TABS,ioos:station:wmo:42049:1,2019-02-02T20:30:00Z,28.3507,-96.0058,2.0,256.9300942,50.45701735,-99999.0,'11111222,11111222,99999999' 
TABS,ioos:station:wmo:42049:1,2019-02-02T21:00:00Z,28.3507,-96.0058,2.0,256.4979066,52.25414912,-99999.0,'11111222,11111222,99999999' 
TABS,ioos:station:wmo:42049:1,2019-02-02T21:30:00Z,28.3507,-96.0058,2.0,255.3244008,55.89338512,-99999.0,'11111222,11111222,99999999' 
TABS,ioos:station:wmo:42049:1,2019-02-02T22:00:00Z,28.3507,-96.0058,2.0,253.1867286,59.87958584,-99999.0,'11111222,11111222,99999999' 
TABS,ioos:station:wmo:42049:1,2019-02-02T22:30:00Z,28.3507,-96.0058,2.0,251.345243,60.27661653,-99999.0,'11111222,11111222,99999999' 
TABS,ioos:station:wmo:42049:1,2019-02-02T23:00:00Z,28.3507,-96.0058,2.0,248.3592723,60.11724628,-99999.0,'11111222,11111222,99999999' 
TABS,ioos:station:wmo:42049:1,2019-02-02T23:30:00Z,28.3507,-96.0058,2.0,246.4386633,61.86757632,-99999.0,'11111222,11111222,99999999' 
TABS,ioos:station:wmo:42049:1,2019-02-03T00:00:00Z,28.3507,-96.0058,2.0,247.007523,65.94908415,-99999.0,'11111222,11111222,99999999' 
TABS,ioos:station:wmo:42049:1,2019-02-03T00:30:00Z,28.3507,-96.0058,2.0,245.3111549,64.18721446,-99999.0,'11111222,11111222,99999999' 
TABS,ioos:station:wmo:42049:1,2019-02-03T01:00:00Z,28.3507,-96.0058,2.0,247.2058266,67.65338868,-99999.0,'11111222,11111222,99999999' 
TABS,ioos:station:wmo:42049:1,2019-02-03T01:30:00Z,28.3507,-96.0058,2.0,245.9438125,67.31652472,-99999.0,'11111222,11111222,99999999' 
TABS,ioos:station:wmo:42049:1,2019-02-03T02:00:00Z,28.3507,-96.0058,2.0,244.2053536,69.14995083,-99999.0,'11111222,11111222,99999999' 
TABS,ioos:station:wmo:42049:1,2019-02-03T02:30:00Z,28.3507,-96.0058,2.0,244.4116249,72.91088876,-99999.0,'11111222,11111222,99999999' 
TABS,ioos:station:wmo:42049:1,2019-02-03T03:00:00Z,28.3507,-96.0058,2.0,245.8522145,76.75650852,-99999.0,'11111222,11111222,99999999' 
TABS,ioos:station:wmo:42049:1,2019-02-03T03:30:00Z,28.3507,-96.0058,2.0,245.3520269,80.32876259,-99999.0,'11111222,11111222,99999999' 
TABS,ioos:station:wmo:42049:1,2019-02-03T04:00:00Z,28.3507,-96.0058,2.0,246.2920371,80.11058981,-99999.0,'11111222,11111222,99999999' 
TABS,ioos:station:wmo:42049:1,2019-02-03T04:30:00Z,28.3507,-96.0058,2.0,246.1120641,83.86360355,-99999.0,'11111222,11111222,99999999' 
TABS,ioos:station:wmo:42049:1,2019-02-03T05:00:00Z,28.3507,-96.0058,2.0,245.0029394,80.55545729,-99999.0,'11111222,11111222,99999999' 
TABS,ioos:station:wmo:42049:1,2019-02-03T05:30:00Z,28.3507,-96.0058,2.0,246.4380888,82.70501617,-99999.0,'11111222,11111222,99999999' 
TABS,ioos:station:wmo:42049:1,2019-02-03T06:00:00Z,28.3507,-96.0058,2.0,247.2011722,82.91809513,-99999.0,'11111222,11111222,99999999' 
TABS,ioos:station:wmo:42049:1,2019-02-03T06:30:00Z,28.3507,-96.0058,2.0,246.2905572,83.56279136,-99999.0,'11111222,11111222,99999999' 
TABS,ioos:station:wmo:42049:1,2019-02-03T07:00:00Z,28.3507,-96.0058,2.0,246.142919,78.64986332,-99999.0,'11111222,11111222,99999999' 
TABS,ioos:station:wmo:42049:1,2019-02-03T07:30:00Z,28.3507,-96.0058,2.0,242.5550429,72.25139722,-99999.0,'11111222,11111222,99999999' 
TABS,ioos:station:wmo:42049:1,2019-02-03T08:00:00Z,28.3507,-96.0058,2.0,241.412444,76.67779992,-99999.0,'11111222,11111222,99999999' 
TABS,ioos:station:wmo:42049:1,2019-02-03T08:30:00Z,28.3507,-96.0058,2.0,243.0321236,74.48973419,-99999.0,'11111222,11111222,99999999' 
TABS,ioos:station:wmo:42049:1,2019-02-03T09:00:00Z,28.3507,-96.0058,2.0,238.1068578,70.12641514,-99999.0,'11111222,11111222,99999999' 
TABS,ioos:station:wmo:42049:1,2019-02-03T09:30:00Z,28.3507,-96.0058,2.0,237.0509619,68.37807031,-99999.0,'11111222,11111222,99999999' 
TABS,ioos:station:wmo:42049:1,2019-02-03T10:00:00Z,28.3507,-96.0058,2.0,235.5286685,69.1886349,-99999.0,'11111222,11111222,99999999' 
TABS,ioos:station:wmo:42049:1,2019-02-03T10:30:00Z,28.3507,-96.0058,2.0,234.2449011,63.81808678,-99999.0,'11111222,11111222,99999999' 
TABS,ioos:station:wmo:42049:1,2019-02-03T11:00:00Z,28.3507,-96.0058,2.0,230.706425,63.00434588,-99999.0,'11111222,11111222,99999999' 
TABS,ioos:station:wmo:42049:1,2019-02-03T11:30:00Z,28.3507,-96.0058,2.0,226.5289744,58.02463701,-99999.0,'11111222,11111222,99999999' 
TABS,ioos:station:wmo:42049:1,2019-02-03T12:00:00Z,28.3507,-96.0058,2.0,223.7055653,62.30492838,-99999.0,'11111222,11111222,99999999' 
TABS,ioos:station:wmo:42049:1,2019-02-03T12:30:00Z,28.3507,-96.0058,2.0,219.1115829,58.58884877,-99999.0,'11111222,11111222,99999999' 
TABS,ioos:station:wmo:42049:1,2019-02-03T13:00:00Z,28.3507,-96.0058,2.0,231.6237015,44.13524669,-99999.0,'11111222,11111222,99999999' 
TABS,ioos:station:wmo:42049:1,2019-02-03T13:30:00Z,28.3507,-96.0058,2.0,242.7008417,42.60506073,-99999.0,'11111222,11111222,99999999' 
TABS,ioos:station:wmo:42049:1,2019-02-03T14:00:00Z,28.3507,-96.0058,2.0,255.8408993,55.5989937,-99999.0,'11111222,11111222,99999999' 
TABS,ioos:station:wmo:42049:1,2019-02-03T14:30:00Z,28.3507,-96.0058,2.0,257.9900227,62.95797328,-99999.0,'11111222,11111222,99999999' 
TABS,ioos:station:wmo:42049:1,2019-02-03T15:00:00Z,28.3507,-96.0058,2.0,255.2462359,62.39717702,-99999.0,'11111222,11111222,99999999' 
TABS,ioos:station:wmo:42049:1,2019-02-03T15:30:00Z,28.3507,-96.0058,2.0,250.2631163,62.92658739,-99999.0,'11111222,11111222,99999999' 
TABS,ioos:station:wmo:42049:1,2019-02-03T16:00:00Z,28.3507,-96.0058,2.0,240.8126807,64.32746303,-99999.0,'11111222,11111222,99999999' 
TABS,ioos:station:wmo:42049:1,2019-02-03T16:30:00Z,28.3507,-96.0058,2.0,237.9721407,65.86509318,-99999.0,'11111222,11111222,99999999' 
TABS,ioos:station:wmo:42049:1,2019-02-03T17:00:00Z,28.3507,-96.0058,2.0,238.9317001,59.41235309,-99999.0,'11111222,11111222,99999999' 
TABS,ioos:station:wmo:42049:1,2019-02-03T17:30:00Z,28.3507,-96.0058,2.0,233.5831637,61.92193876,-99999.0,'11111222,11111222,99999999' 
TABS,ioos:station:wmo:42049:1,2019-02-03T18:00:00Z,28.3507,-96.0058,2.0,235.6234477,60.21702417,-99999.0,'11111222,11111222,99999999' 
TABS,ioos:station:wmo:42049:1,2019-02-03T18:30:00Z,28.3507,-96.0058,2.0,233.7700839,53.33133038,-99999.0,'11111222,11111222,99999999' 
TABS,ioos:station:wmo:42049:1,2019-02-03T19:00:00Z,28.3507,-96.0058,2.0,229.7147284,55.39837543,-99999.0,'11111222,11111222,99999999' 
TABS,ioos:station:wmo:42049:1,2019-02-03T19:30:00Z,28.3507,-96.0058,2.0,228.2910708,47.53942574,-99999.0,'11111222,11111222,99999999' 
TABS,ioos:station:wmo:42049:1,2019-02-03T20:00:00Z,28.3507,-96.0058,2.0,224.9388125,53.24517067,-99999.0,'11111222,11111222,99999999' 
TABS,ioos:station:wmo:42049:1,2019-02-03T20:30:00Z,28.3507,-96.0058,2.0,221.0679007,57.23357843,-99999.0,'11111222,11111222,99999999' 
TABS,ioos:station:wmo:42049:1,2019-02-03T21:00:00Z,28.3507,-96.0058,2.0,219.5462866,55.80288344,-99999.0,'11111222,11111222,99999999' 
TABS,ioos:station:wmo:42049:1,2019-02-03T21:30:00Z,28.3507,-96.0058,2.0,237.6993274,63.01028884,-99999.0,'11111222,11111222,99999999' 
TABS,ioos:station:wmo:42049:1,2019-02-03T22:00:00Z,28.3507,-96.0058,2.0,229.0360888,58.66567651,-99999.0,'11111222,11111222,99999999' 
TABS,ioos:station:wmo:42049:1,2019-02-03T22:30:00Z,28.3507,-96.0058,2.0,222.6709633,57.77591194,-99999.0,'11111222,11111222,99999999' 
TABS,ioos:station:wmo:42049:1,2019-02-03T23:00:00Z,28.3507,-96.0058,2.0,215.9680625,55.67489201,-99999.0,'11111222,11111222,99999999' 
TABS,ioos:station:wmo:42049:1,2019-02-03T23:30:00Z,28.3507,-96.0058,2.0,220.9892633,54.89985155,-99999.0,'11111222,11111222,99999999' 
TABS,ioos:station:wmo:42049:1,2019-02-04T00:00:00Z,28.3507,-96.0058,2.0,224.0929595,63.00403241,-99999.0,'11111222,11111222,99999999' 
TABS,ioos:station:wmo:42049:1,2019-02-04T00:30:00Z,28.3507,-96.0058,2.0,223.3106867,66.21396227,-99999.0,'11111222,11111222,99999999' 
TABS,ioos:station:wmo:42049:1,2019-02-04T01:00:00Z,28.3507,-96.0058,2.0,221.3922095,66.52915301,-99999.0,'11111222,11111222,99999999' 
TABS,ioos:station:wmo:42049:1,2019-02-04T01:30:00Z,28.3507,-96.0058,2.0,217.9906876,71.04359929,-99999.0,'11111222,11111222,99999999' 
TABS,ioos:station:wmo:42049:1,2019-02-04T02:00:00Z,28.3507,-96.0058,2.0,218.0035478,74.48258656,-99999.0,'11111222,11111222,99999999' 
TABS,ioos:station:wmo:42049:1,2019-02-04T02:30:00Z,28.3507,-96.0058,2.0,217.5484055,73.77317737,-99999.0,'11111222,11111222,99999999' 
TABS,ioos:station:wmo:42049:1,2019-02-04T03:00:00Z,28.3507,-96.0058,2.0,215.8406971,77.29646305,-99999.0,'11111222,11111222,99999999' 
TABS,ioos:station:wmo:42049:1,2019-02-04T03:30:00Z,28.3507,-96.0058,2.0,213.150745,75.17629746,-99999.0,'11111222,11111222,99999999' 
TABS,ioos:station:wmo:42049:1,2019-02-04T04:00:00Z,28.3507,-96.0058,2.0,212.9361789,76.12531905,-99999.0,'11111222,11111222,99999999' 
TABS,ioos:station:wmo:42049:1,2019-02-04T04:30:00Z,28.3507,-96.0058,2.0,211.4016292,77.59508876,-99999.0,'11111222,11111222,99999999' 
TABS,ioos:station:wmo:42049:1,2019-02-04T05:00:00Z,28.3507,-96.0058,2.0,212.323911,79.81907604,-99999.0,'11111222,11111222,99999999' 
TABS,ioos:station:wmo:42049:1,2019-02-04T05:30:00Z,28.3507,-96.0058,2.0,209.7376825,82.17177192,-99999.0,'11111222,11111222,99999999' 
TABS,ioos:station:wmo:42049:1,2019-02-04T06:00:00Z,28.3507,-96.0058,2.0,207.4023746,84.12986687,-99999.0,'11111222,11111222,99999999' 
TABS,ioos:station:wmo:42049:1,2019-02-04T06:30:00Z,28.3507,-96.0058,2.0,207.7882433,81.89453523,-99999.0,'11111222,11111222,99999999' 
TABS,ioos:station:wmo:42049:1,2019-02-04T07:00:00Z,28.3507,-96.0058,2.0,205.3091847,81.63608271,-99999.0,'11111222,11111222,99999999' 
TABS,ioos:station:wmo:42049:1,2019-02-04T07:30:00Z,28.3507,-96.0058,2.0,202.1034903,84.45727263,-99999.0,'11111222,11111222,99999999' 
TABS,ioos:station:wmo:42049:1,2019-02-04T08:00:00Z,28.3507,-96.0058,2.0,202.7364435,86.00325575,-99999.0,'11111222,11111222,99999999' 
TABS,ioos:station:wmo:42049:1,2019-02-04T08:30:00Z,28.3507,-96.0058,2.0,207.8680097,86.32113646,-99999.0,'11111222,11111222,99999999' 
TABS,ioos:station:wmo:42049:1,2019-02-04T09:00:00Z,28.3507,-96.0058,2.0,209.6839368,87.86005349,-99999.0,'11111222,11111222,99999999' 
TABS,ioos:station:wmo:42049:1,2019-02-04T09:30:00Z,28.3507,-96.0058,2.0,209.2215708,91.17304975,-99999.0,'11111222,11111222,99999999' 
TABS,ioos:station:wmo:42049:1,2019-02-04T10:00:00Z,28.3507,-96.0058,2.0,212.9482417,90.86472858,-99999.0,'11111222,11111222,99999999' 
TABS,ioos:station:wmo:42049:1,2019-02-04T10:30:00Z,28.3507,-96.0058,2.0,221.3912239,85.72280035,-99999.0,'11111222,11111222,99999999' 
TABS,ioos:station:wmo:42049:1,2019-02-04T11:00:00Z,28.3507,-96.0058,2.0,227.672635,76.57105001,-99999.0,'11111222,11111222,99999999' 
TABS,ioos:station:wmo:42049:1,2019-02-04T11:30:00Z,28.3507,-96.0058,2.0,230.3749151,71.40652351,-99999.0,'11111222,11111222,99999999' 
TABS,ioos:station:wmo:42049:1,2019-02-04T12:00:00Z,28.3507,-96.0058,2.0,237.3574699,61.42113073,-99999.0,'11111222,11111222,99999999' 
TABS,ioos:station:wmo:42049:1,2019-02-04T12:30:00Z,28.3507,-96.0058,2.0,243.6690678,55.73222497,-99999.0,'11111222,11111222,99999999' 
TABS,ioos:station:wmo:42049:1,2019-02-04T13:00:00Z,28.3507,-96.0058,2.0,243.4072912,56.31761447,-99999.0,'11111222,11111222,99999999' 
TABS,ioos:station:wmo:42049:1,2019-02-04T13:30:00Z,28.3507,-96.0058,2.0,250.1328106,78.71469621,-99999.0,'11111222,11111222,99999999' 
TABS,ioos:station:wmo:42049:1,2019-02-04T14:00:00Z,28.3507,-96.0058,2.0,247.0661191,71.80569128,-99999.0,'11111222,11111222,99999999' 
TABS,ioos:station:wmo:42049:1,2019-02-04T14:30:00Z,28.3507,-96.0058,2.0,250.1015287,67.37215597,-99999.0,'11111222,11111222,99999999' 
TABS,ioos:station:wmo:42049:1,2019-02-04T15:00:00Z,28.3507,-96.0058,2.0,250.5543067,66.17462429,-99999.0,'11111222,11111222,99999999' 
TABS,ioos:station:wmo:42049:1,2019-02-04T15:30:00Z,28.3507,-96.0058,2.0,252.8981401,67.40006528,-99999.0,'11111222,11111222,99999999' 
TABS,ioos:station:wmo:42049:1,2019-02-04T16:00:00Z,28.3507,-96.0058,2.0,248.4513139,63.05718119,-99999.0,'11111222,11111222,99999999' 